Regional Weather Roundup
Issued by NWS

Home | Current Version | Previous Version | Text Only | Print | Product List | Glossary On
Versions: 1 2 3 4 5 6 7 8 9 10 11 12 13 14 15 16 17 18 19 20 21 22 23 24 25 26 27 28 29 30 31 32 33 34 35 36 37 38 39 40 41 42 43 44 45 46 47 48 49 50
000
ASUS43 KFSD 271802
RWRSD

WEATHER ROUNDUP FOR SOUTH DAKOTA
NATIONAL WEATHER SERVICE SIOUX FALLS SD
1200 PM CST SAT DEC 27 2014

NOTE: "FAIR" INDICATES FEW OR NO CLOUDS BELOW 12,000 FEET WITH NO
SIGNIFICANT WEATHER AND/OR OBSTRUCTIONS TO VISIBILITY.


SDZ001>005-009-010-012>017-271900-
NORTHWEST AND NORTH CENTRAL SOUTH DAKOTA

CITY           SKY/WX    TMP DP  RH WIND       PRES   REMARKS
BUFFALO          N/A     27  17  66 W18       29.96F WCI  14
FAITH            N/A     25  15  66 W13       30.07F WCI  14
MOBRIDGE       SUNNY     16  12  84 SE6       30.08F WCI   7
$$

SDZ012>016-024>037-041>051-057-063-072>074-271900-
SOUTHWEST AND SOUTH CENTRAL SOUTH DAKOTA

CITY           SKY/WX    TMP DP  RH WIND       PRES   REMARKS
RAPID CTY ARPT SUNNY     20   9  62 E3        30.09F
PIERRE         MOSUNNY   16  11  80 SW9       30.15F WCI   4
CUSTER         SUNNY     23   8  52 W14G21    29.98F WCI  11
ELLSWORTH AFB  SUNNY     22  10  60 S6        30.07F WCI  14
PHILIP         SUNNY     23  16  74 W12       30.16F WCI  12
PINE RIDGE     SUNNY     22  13  68 W14       30.14F WCI   9
WINNER         FAIR      22  13  68 W12       30.18F WCI  10
$$

SDZ004>011-016>023-039-040-271900-
NORTHEAST SOUTH DAKOTA

CITY           SKY/WX    TMP DP  RH WIND       PRES   REMARKS
ABERDEEN       CLOUDY    16  11  80 SW9       30.14F WCI   4
WATERTOWN      SUNNY     11   7  84 SW7       30.11F WCI   0
SISSETON         N/A     19  12  74 W17       30.09F WCI   4
$$

SDZ017-020-022-023-036>040-048>070-271900-
SOUTHEAST SOUTH DAKOTA

CITY           SKY/WX    TMP DP  RH WIND       PRES   REMARKS
SIOUX FALLS    SUNNY     12   7  80 W8        30.20F WCI   0
HURON          SUNNY     12   7  80 SW6       30.20F WCI   3
MITCHELL       SUNNY     15  10  80 SW8       30.22F WCI   4
YANKTON        SUNNY     16   9  73 W9        30.25F WCI   4
$$

ABBREVIATIONS USED IN REMARKS
   TC - TEMPERATURE IN CELSIUS
  WCI - WIND CHILL INDEX
   HX - HEAT INDEX
  VSB - VISIBILITY



USA.gov is the U.S. government's official web portal to all federal, state and local government web resources and services.